Baton Rouge, LA

12:51 AM CDT on August 26, 2016 (GMT -0500)
Baton Rouge Metro-Ryan

Weather History for KBTR - January, 2014

Change the Weather History Date:

Sunday, January 5, 2014

  Actual Average Record
Temperature  
Mean Temperature 52 °F 52 °F  
Max Temperature 70 °F 62 °F 79 °F (2005)
Min Temperature 34 °F 41 °F 20 °F (1999)
Degree Days  
Heating Degree Days 13 14  
Month to date heating degree days 94 70  
Since 1 July heating degree days 818 686  
Cooling Degree Days 0 0  
Month to date cooling degree days 0 2  
Year to date cooling degree days 0 2  
Growing Degree Days 3 (Base 50)    
Moisture  
Dew Point 48 °F    
Average Humidity 81    
Maximum Humidity 100    
Minimum Humidity 61    
Precipitation  
Precipitation 0.16 in 0.18 in 2.65 in (1962)
Month to date precipitation 0.48 0.87  
Year to date precipitation 0.48 0.87  
Snow  
Snow 0.00 in - - ()
Month to date snowfall 0.0  
Since 1 July snowfall 0.0  
Snow Depth 0.00 in    
Sea Level Pressure  
Sea Level Pressure 29.98 in    
Wind  
Wind Speed 10 mph (West)    
Max Wind Speed 23 mph    
Max Gust Speed 29 mph    
Visibility 9 miles    
Events Rain    
T = Trace of Precipitation, MM = Missing Value Source: NWS Daily Summary

Daily Weather History Graph

Daily Weather History Graph

Search for Another Location

Airport or City:

Trip Planner

Search our weather history database for the weather conditions in past years. The results will help you decide how hot, cold, wet, or windy it might be!

Date:

Astronomy

Jan. 05, 2014 Rise Set
Actual Time 7:02 AM CST 5:17 PM CST
Civil Twilight 6:36 AM CST 5:44 PM CST
Nautical Twilight 6:06 AM CST 6:14 PM CST
Astronomical Twilight 5:37 AM CST 6:43 PM CST
Moon 10:05 AM CST (1/5) 10:22 PM CST (1/5)
Length of Visible Light 11h 08m
Length of Day
10h 15m
Waxing Crescent, 25% of the Moon is Illuminated
Jan 5
Waxing Crescent
Jan 7
First Quarter
Jan 15
Full
Jan 23
Last Quarter
Jan 30
New

Hourly Weather History & Observations

Time (CST) Temp. Windchill Dew Point Humidity Pressure Visibility Wind Dir Wind Speed Gust Speed Precip Events Conditions
12:25 AM 48.2 °F - 48.2 °F 100% 30.01 in 5.0 mi ESE 5.8 mph - N/A   Overcast
12:53 AM 48.9 °F - 48.0 °F 97% 30.00 in 5.0 mi ESE 5.8 mph - N/A   Overcast
1:53 AM 51.1 °F - 48.9 °F 92% 29.99 in 10.0 mi ESE 4.6 mph - N/A   Overcast
2:53 AM 50.0 °F - 48.9 °F 96% 29.98 in 8.0 mi East 4.6 mph - N/A   Overcast
3:53 AM 51.1 °F - 48.9 °F 92% 29.97 in 8.0 mi Calm Calm - N/A   Overcast
4:53 AM 51.1 °F - 50.0 °F 96% 29.96 in 7.0 mi Calm Calm - N/A   Overcast
5:53 AM 52.0 °F - 50.0 °F 93% 29.96 in 8.0 mi ESE 5.8 mph - N/A   Overcast
6:53 AM 53.1 °F - 51.1 °F 93% 29.95 in 8.0 mi ESE 9.2 mph - N/A   Overcast
7:53 AM 55.0 °F - 51.1 °F 86% 29.95 in 10.0 mi SE 9.2 mph - N/A   Overcast
8:53 AM 57.9 °F - 52.0 °F 81% 29.95 in 10.0 mi SE 13.8 mph - N/A   Overcast
9:53 AM 64.0 °F - 53.1 °F 67% 29.95 in 10.0 mi SSE 13.8 mph - N/A   Mostly Cloudy
10:53 AM 66.0 °F - 53.1 °F 63% 29.95 in 10.0 mi South 15.0 mph - N/A   Overcast
11:53 AM 66.9 °F - 54.0 °F 63% 29.89 in 10.0 mi SSE 11.5 mph - N/A   Mostly Cloudy
12:53 PM 69.1 °F - 55.0 °F 61% 29.85 in 10.0 mi South 13.8 mph 20.7 mph N/A   Scattered Clouds
1:53 PM 69.1 °F - 57.0 °F 65% 29.83 in 10.0 mi SSW 11.5 mph - N/A   Overcast
2:53 PM 70.0 °F - 59.0 °F 68% 29.83 in 10.0 mi SSW 13.8 mph - N/A   Overcast
3:11 PM 66.2 °F - 60.8 °F 83% 29.86 in 3.0 mi West 17.3 mph 24.2 mph 0.01 in Rain Rain
3:13 PM 64.4 °F - 60.8 °F 88% 29.86 in 1.5 mi West 16.1 mph 24.2 mph 0.03 in Rain Heavy Rain
3:19 PM 64.4 °F - 62.6 °F 94% 29.86 in 4.0 mi WSW 10.4 mph 24.2 mph 0.15 in Rain Heavy Rain
3:41 PM 57.2 °F - 53.6 °F 88% 29.89 in 10.0 mi WNW 16.1 mph 28.8 mph 0.16 in Rain Light Rain
3:46 PM 57.2 °F - 53.6 °F 88% 29.90 in 10.0 mi WNW 15.0 mph 28.8 mph 0.16 in Rain Light Rain
3:53 PM 55.9 °F - 54.0 °F 93% 29.90 in 10.0 mi WNW 13.8 mph 23.0 mph 0.16 in Rain Light Rain
4:28 PM 53.6 °F - 51.8 °F 94% 29.95 in 10.0 mi NW 19.6 mph 26.5 mph 0.00 in   Overcast
4:53 PM 51.1 °F - 44.1 °F 77% 29.96 in 10.0 mi WNW 11.5 mph 24.2 mph 0.00 in   Overcast
5:53 PM 48.0 °F - 44.1 °F 86% 30.01 in 10.0 mi WNW 10.4 mph - 0.00 in   Overcast
6:29 PM 46.4 °F 40.1 °F 39.2 °F 76% 30.04 in 10.0 mi NW 15.0 mph 25.3 mph N/A   Mostly Cloudy
6:53 PM 44.1 °F 37.7 °F 37.0 °F 76% 30.06 in 10.0 mi NNW 12.7 mph 24.2 mph N/A   Scattered Clouds
7:53 PM 42.1 °F 36.6 °F 35.1 °F 76% 30.09 in 10.0 mi NW 9.2 mph - N/A   Scattered Clouds
8:40 PM 42.8 °F 37.0 °F 35.6 °F 76% 30.11 in 10.0 mi NNW 10.4 mph 19.6 mph N/A   Overcast
8:53 PM 42.1 °F 35.7 °F 35.1 °F 76% 30.12 in 10.0 mi NW 11.5 mph 17.3 mph N/A   Overcast
9:53 PM 39.0 °F 30.6 °F 28.0 °F 65% 30.17 in 10.0 mi NW 15.0 mph 26.5 mph N/A   Overcast
10:53 PM 36.0 °F 26.7 °F 27.0 °F 70% 30.19 in 10.0 mi NNW 15.0 mph 25.3 mph N/A   Overcast
11:53 PM 34.0 °F 25.5 °F 24.1 °F 67% 30.23 in 10.0 mi NNW 11.5 mph 24.2 mph N/A   Overcast